Wind_Speed
13 13 13 13 13 13 12 12 12 11 10 9 8 7 6 7 7 7 7 7 7 8 10 11 12 14 12 15 18 19 18 21 27 33 29 30 34 41 43 38 32 34 36
17 17 16 15 14 13 13 12 11 10 9 9 8 7 6 6 5 5 5 7 8 8 8 9 10 11 13 14 15 18 18 19 22 30 26 28 28 27 33 38 43 45 39
14 15 17 17 16 15 15 14 13 11 10 9 8 6 5 5 5 6 6 7 9 9 7 8 9 11 13 15 16 18 20 21 21 26 29 26 28 26 28 28 30 34 36
17 16 17 17 17 17 16 15 14 13 12 11 9 8 7 6 6 5 5 6 6 5 7 8 8 10 13 16 17 18 22 22 21 23 26 27 28 28 27 30 31 32 33
18 19 19 19 19 19 18 18 16 15 13 11 10 9 9 7 5 4 4 3 3 4 6 6 8 13 15 15 16 19 20 20 21 23 26 28 29 28 27 25 30 29 30
21 21 21 21 21 21 20 19 17 15 14 12 11 10 10 7 12 8 7 4 4 4 5 6 9 11 10 13 15 16 16 17 20 23 20 23 26 27 29 29 29 29 29
25 25 27 27 25 23 21 20 18 17 15 14 13 12 12 11 12 9 8 5 4 5 6 6 8 9 9 11 15 17 14 10 15 23 24 24 29 26 25 23 25 24 27
29 29 27 26 25 23 22 21 19 17 17 16 15 14 13 12 14 12 10 8 7 6 6 5 6 8 12 14 16 15 11 17 13 15 14 19 22 27 20 16 18 23 23
26 28 28 27 27 25 25 23 20 19 18 18 17 16 15 14 13 12 11 9 9 7 6 6 7 6 10 10 11 11 16 15 13 13 14 16 16 20 17 15 12 12 11
23 29 29 30 30 29 27 25 22 20 19 18 17 17 16 13 16 14 12 11 11 7 8 8 10 7 10 12 9 9 12 13 16 15 11 15 14 12 13 7 3 4 8
20 24 29 33 34 31 29 25 24 21 19 20 18 17 17 15 14 13 15 15 12 10 6 8 7 11 5 8 6 9 10 12 12 14 13 13 8 13 7 6 7 6 5
18 24 29 32 37 34 33 29 26 23 22 21 20 18 17 16 16 15 15 17 17 11 7 8 9 10 1 5 5 6 4 6 15 12 13 15 16 15 16 15 13 15 14
20 23 23 30 35 40 38 34 29 26 24 23 23 21 19 16 14 16 16 17 19 15 10 12 15 7 4 2 2 1 7 10 10 11 7 6 8 8 6 6 6 8 7
23 23 23 27 33 41 44 44 38 29 26 26 26 23 21 18 15 14 17 16 16 15 12 15 13 11 9 10 10 10 9 9 8 8 9 9 9 8 8 7 4 3 3
24 23 23 23 31 39 44 49 47 37 31 28 28 26 25 22 20 19 17 15 13 12 12 14 13 10 8 9 10 10 10 8 6 7 7 8 8 8 8 8 6 5 6
26 25 23 22 23 35 41 46 42 37 30 28 28 27 25 23 23 23 20 21 20 19 13 16 15 13 11 10 10 10 9 11 9 9 8 7 6 6 5 5 4 4 4
23 24 21 20 20 32 39 43 38 37 31 27 32 35 30 28 30 27 23 20 19 19 20 17 18 16 15 13 11 11 11 10 11 11 11 10 9 8 8 7 7 7 8
23 21 19 16 19 19 28 36 38 38 38 34 34 38 36 31 30 30 26 23 24 26 23 19 20 19 18 17 15 13 12 12 13 13 14 14 13 13 12 12 12 12 12
25 24 22 22 19 21 19 27 31 38 25 28 31 38 40 40 37 32 30 29 24 24 23 23 22 22 22 19 18 17 16 15 15 15 15 15 16 16 17 17 17 18 18
21 27 27 26 22 20 21 17 30 33 28 25 28 29 31 42 40 40 37 36 30 29 25 25 24 24 23 22 21 20 19 18 17 17 17 18 18 17 18 19 19 20 20
16 17 22 25 25 22 26 21 18 26 26 26 28 27 28 25 32 32 30 29 31 30 28 27 26 27 26 25 24 24 23 21 19 19 18 18 18 18 17 18 18 19 20
16 7 5 17 22 25 26 26 16 17 25 24 23 25 29 28 23 25 25 27 26 26 28 28 28 27 28 29 27 26 24 24 23 22 21 21 20 20 20 19 20 21 22
30 29 23 17 12 11 10 12 17 15 22 29 25 18 26 24 25 23 23 24 25 24 22 25 28 28 27 24 25 27 28 27 26 25 25 24 24 24 23 24 24 25 25
26 29 31 32 32 30 27 24 21 17 15 13 12 13 22 28 30 30 30 28 29 28 28 29 26 26 23 24 27 27 28 29 28 28 27 27 27 27 27 27 27 27 26
24 24 25 26 28 27 27 25 23 23 22 20 17 13 9 8 4 4 14 20 24 28 32 34 35 35 35 33 29 28 29 31 30 29 25 24 25 25 27 27 27 24 23
21 20 20 19 19 20 22 22 21 21 20 18 16 14 11 9 7 7 6 8 10 11 16 21 25 28 32 36 38 41 36 33 36 38 36 30 26 25 25 25 25 23 21
Wind_Direction
206 212 212 210 210 211 214 217 218 218 216 219 225 235 250 264 272 272 275 284 294 297 298 299 297 296 292 291 283 281 279 274 276 280 285 290 281 270 272 264 270 272 264
209 211 213 217 218 217 217 217 217 218 218 220 229 240 254 270 286 298 308 315 318 316 313 310 305 300 300 298 293 290 283 280 283 289 290 288 288 285 278 269 264 263 266
208 216 220 216 214 214 218 218 218 220 222 229 239 250 266 275 289 305 317 324 322 318 318 316 314 310 311 300 298 293 289 287 284 287 295 292 290 289 282 278 269 269 265
215 212 215 216 216 217 220 219 219 221 226 232 238 244 248 254 268 287 300 314 321 329 326 319 323 319 319 312 307 301 297 283 284 289 292 299 300 294 284 280 275 271 272
218 216 216 215 214 217 220 220 219 221 224 227 235 236 239 242 236 237 263 290 315 321 322 329 320 314 324 325 316 313 307 288 287 294 296 301 303 298 284 278 277 275 278
223 223 222 220 217 219 221 222 224 225 225 231 230 227 232 220 244 252 246 250 281 307 325 328 331 325 337 331 321 324 313 308 301 303 302 303 308 303 288 275 276 280 280
229 227 230 228 222 221 219 219 219 220 222 224 224 225 231 223 250 246 248 224 256 284 306 331 334 315 329 326 341 343 338 322 310 311 293 307 309 312 295 280 277 276 272
233 235 228 224 220 216 214 215 216 216 219 222 221 228 228 226 247 245 248 236 249 263 275 303 315 328 308 326 339 339 332 332 327 329 321 321 323 321 319 297 276 277 266
236 232 228 223 219 215 214 215 214 215 220 221 222 227 225 222 243 242 243 228 242 251 261 260 279 301 305 326 337 337 344 352 336 339 339 334 327 341 334 334 303 273 218
242 238 230 226 223 218 217 216 217 213 219 222 222 227 226 221 253 240 234 219 234 237 242 265 271 286 308 331 338 343 338 1 2 358 321 329 358 354 38 54 20 228 210
253 244 239 231 225 222 220 214 216 214 213 220 223 223 222 230 238 244 228 204 223 229 217 254 238 281 324 351 348 6 32 17 13 14 27 0 345 47 38 10 29 103 96
266 251 241 237 231 223 218 214 213 211 212 217 221 221 223 223 228 236 221 216 218 222 211 226 238 271 284 110 61 59 78 3 3 19 48 44 58 62 68 59 67 70 90
273 263 250 240 235 226 219 212 210 208 207 214 219 217 217 222 219 230 222 217 216 215 205 225 227 231 165 127 346 204 297 310 319 335 334 352 346 349 359 18 36 56 81
269 271 264 247 237 228 224 218 213 206 206 211 214 211 211 210 206 218 205 206 207 210 202 210 202 196 229 244 274 304 309 297 294 291 304 305 309 310 316 313 320 324 315
267 267 269 261 246 233 229 223 220 216 211 209 213 208 201 203 199 188 183 192 196 204 201 211 223 231 249 270 281 289 289 281 276 275 280 288 292 290 291 287 282 267 261
267 264 266 267 268 249 237 226 219 220 223 224 211 212 207 199 203 195 192 192 197 208 215 213 225 237 243 257 272 280 280 269 261 258 261 264 262 262 266 267 263 257 266
274 263 261 273 265 257 235 222 221 233 224 228 219 214 202 205 205 209 206 209 220 227 231 228 237 244 249 256 259 266 268 266 259 260 265 264 263 264 265 258 256 258 259
275 269 259 263 268 257 253 240 218 225 221 220 225 220 214 206 211 216 218 226 232 235 232 235 243 241 250 259 260 255 260 261 261 262 262 264 262 262 263 264 265 265 267
269 263 267 276 265 255 253 250 237 220 213 220 228 226 222 218 218 222 224 228 229 235 239 242 241 241 245 252 259 258 258 256 254 253 256 257 258 259 263 265 268 267 267
274 264 264 259 259 254 247 247 233 220 220 217 221 219 220 221 222 224 226 229 229 232 236 241 241 245 248 252 255 255 258 260 258 258 257 252 253 255 259 264 266 267 267
302 275 261 247 246 255 243 252 232 235 219 212 217 215 212 214 215 218 221 226 229 236 240 241 242 244 247 253 257 259 257 251 251 255 256 258 257 254 256 258 262 265 268
26 3 263 237 236 245 247 232 239 223 237 226 215 218 215 211 214 217 224 229 234 234 238 241 244 246 248 251 255 256 254 253 252 250 253 256 256 258 260 260 262 265 268
46 57 72 95 128 177 163 195 220 237 228 218 216 194 194 206 215 221 223 224 227 228 233 235 240 246 248 252 253 254 254 253 254 254 254 255 258 260 260 261 264 267 267
34 44 53 63 70 77 82 89 95 109 118 144 153 156 174 187 200 214 221 223 224 226 229 231 232 233 244 251 251 252 254 255 254 254 254 255 258 261 262 261 261 264 266
29 33 42 45 51 54 59 64 67 69 73 75 80 85 79 62 68 173 216 226 233 238 243 248 251 250 247 245 242 243 249 253 251 247 245 251 253 255 256 256 257 260 259
29 31 35 38 42 41 44 43 48 54 58 59 60 60 59 47 34 13 346 327 307 290 276 266 261 259 255 255 254 249 244 242 245 249 254 257 254 255 256 255 254 250 247
Height
1526 1528 1530 1532 1533 1534 1535 1536 1538 1539 1540 1541 1542 1542 1542 1543 1543 1543 1542 1541 1541 1540 1539 1538 1537 1535 1536 1533 1530 1528 1526 1525 1519 1515 1515 1512 1509 1508 1507 1507 1505 1503 1504
1524 1526 1529 1530 1531 1532 1533 1534 1535 1537 1538 1539 1539 1540 1539 1539 1539 1539 1538 1537 1537 1536 1536 1535 1535 1534 1531 1531 1528 1524 1520 1519 1516 1508 1508 1506 1504 1501 1496 1495 1496 1496 1496
1521 1523 1526 1527 1528 1530 1531 1532 1533 1535 1536 1536 1536 1536 1536 1536 1536 1535 1535 1534 1534 1533 1532 1532 1530 1529 1527 1525 1521 1520 1518 1514 1511 1506 1501 1501 1498 1496 1491 1487 1486 1485 1484
1518 1521 1523 1523 1525 1526 1527 1528 1530 1531 1532 1533 1533 1534 1533 1533 1533 1533 1532 1532 1532 1531 1530 1528 1527 1526 1524 1522 1518 1515 1513 1509 1507 1503 1498 1495 1493 1490 1486 1480 1477 1476 1475
1516 1517 1518 1519 1521 1522 1522 1524 1525 1527 1528 1529 1530 1530 1529 1529 1531 1530 1530 1530 1530 1530 1528 1527 1525 1523 1519 1517 1515 1510 1507 1504 1501 1497 1493 1490 1486 1483 1479 1476 1470 1469 1467
1512 1513 1514 1514 1514 1516 1517 1519 1520 1522 1523 1525 1526 1527 1525 1526 1524 1525 1526 1528 1528 1527 1526 1524 1523 1520 1517 1516 1511 1506 1503 1500 1497 1494 1489 1485 1482 1477 1471 1468 1465 1463 1462
1505 1507 1507 1508 1509 1509 1511 1514 1515 1517 1518 1519 1522 1523 1522 1521 1520 1521 1521 1523 1524 1523 1523 1521 1520 1518 1515 1513 1509 1504 1500 1498 1494 1491 1486 1482 1477 1471 1465 1460 1458 1458 1456
1498 1499 1500 1502 1504 1505 1506 1508 1511 1513 1515 1516 1516 1517 1517 1517 1515 1516 1517 1518 1520 1519 1519 1517 1518 1516 1513 1510 1507 1503 1500 1496 1492 1487 1483 1480 1474 1467 1461 1455 1453 1453 1453
1491 1492 1495 1497 1499 1500 1501 1501 1504 1507 1510 1511 1512 1511 1511 1512 1510 1511 1512 1515 1516 1516 1516 1514 1514 1513 1510 1507 1505 1502 1499 1495 1491 1487 1483 1478 1473 1467 1458 1454 1452 1451 1451
1484 1485 1488 1491 1492 1493 1495 1495 1497 1500 1503 1505 1506 1505 1505 1506 1504 1505 1507 1512 1512 1512 1511 1511 1510 1510 1508 1504 1503 1501 1497 1494 1489 1484 1480 1477 1473 1467 1464 1460 1457 1455 1454
1477 1477 1479 1481 1483 1486 1488 1489 1490 1491 1496 1499 1500 1500 1500 1500 1501 1500 1501 1506 1508 1508 1507 1509 1509 1507 1505 1503 1501 1499 1496 1494 1490 1487 1482 1478 1475 1471 1468 1465 1463 1462 1460
1469 1469 1470 1471 1473 1476 1479 1480 1482 1483 1487 1492 1494 1495 1496 1495 1495 1495 1497 1499 1503 1505 1503 1507 1505 1503 1502 1500 1499 1497 1496 1493 1492 1490 1485 1482 1480 1477 1474 1472 1470 1467 1466
1463 1461 1461 1461 1463 1465 1468 1471 1473 1473 1478 1483 1487 1488 1491 1491 1490 1490 1492 1494 1496 1498 1500 1501 1500 1499 1498 1498 1499 1496 1494 1493 1494 1490 1489 1487 1484 1480 1479 1477 1477 1476 1475
1456 1454 1452 1451 1453 1455 1457 1460 1461 1463 1466 1474 1479 1480 1484 1486 1485 1485 1486 1489 1491 1492 1494 1495 1495 1495 1495 1495 1495 1495 1494 1493 1491 1490 1489 1487 1485 1484 1482 1481 1480 1479 1479
1448 1447 1444 1443 1444 1445 1447 1448 1450 1452 1454 1463 1469 1472 1474 1477 1479 1481 1483 1487 1489 1490 1492 1494 1494 1493 1493 1494 1493 1492 1492 1490 1489 1488 1487 1485 1483 1483 1481 1480 1479 1479 1479
1441 1439 1437 1436 1436 1436 1438 1439 1442 1446 1447 1453 1462 1467 1468 1471 1472 1474 1478 1482 1485 1487 1488 1490 1490 1490 1490 1489 1489 1489 1488 1486 1486 1485 1484 1482 1480 1479 1479 1478 1477 1477 1477
1433 1432 1430 1428 1427 1429 1429 1429 1432 1433 1440 1447 1451 1459 1461 1463 1465 1469 1473 1477 1480 1482 1482 1485 1485 1485 1486 1485 1484 1484 1483 1483 1483 1482 1481 1480 1479 1478 1477 1476 1476 1475 1474
1426 1424 1424 1423 1422 1422 1423 1424 1424 1427 1431 1438 1443 1450 1453 1457 1459 1463 1467 1471 1473 1475 1476 1478 1480 1480 1481 1481 1480 1479 1478 1478 1478 1477 1477 1477 1476 1476 1475 1474 1473 1472 1472
1418 1416 1417 1417 1417 1416 1417 1416 1419 1420 1422 1429 1435 1440 1444 1449 1454 1456 1459 1462 1466 1470 1471 1471 1472 1474 1474 1475 1475 1475 1473 1473 1472 1472 1471 1471 1471 1471 1470 1469 1468 1467 1467
1407 1408 1409 1409 1408 1409 1410 1410 1412 1412 1417 1420 1427 1430 1433 1440 1442 1445 1449 1453 1456 1461 1464 1465 1465 1466 1467 1468 1468 1468 1468 1467 1467 1466 1465 1465 1465 1465 1464 1464 1463 1462 1461
1400 1399 1399 1400 1403 1403 1402 1404 1405 1406 1407 1413 1419 1423 1427 1428 1433 1437 1441 1444 1448 1452 1455 1456 1457 1458 1459 1461 1461 1462 1461 1460 1460 1460 1460 1460 1460 1458 1457 1457 1456 1455 1454
1401 1396 1393 1394 1395 1395 1396 1397 1400 1400 1402 1405 1411 1415 1419 1425 1428 1431 1435 1439 1441 1444 1446 1448 1449 1450 1450 1451 1452 1452 1453 1454 1454 1453 1453 1453 1453 1453 1452 1451 1450 1448 1447
1410 1402 1396 1392 1391 1391 1389 1390 1394 1395 1395 1398 1400 1403 1409 1416 1421 1424 1425 1427 1429 1432 1435 1437 1440 1441 1442 1444 1445 1445 1445 1445 1446 1447 1446 1446 1446 1445 1445 1443 1442 1441 1440
1420 1413 1407 1402 1397 1395 1394 1393 1393 1393 1392 1394 1395 1398 1401 1405 1410 1414 1416 1418 1421 1424 1426 1428 1430 1431 1432 1435 1437 1438 1438 1438 1438 1438 1438 1438 1437 1437 1436 1435 1434 1432 1432
1428 1423 1417 1412 1408 1406 1404 1403 1402 1398 1397 1397 1398 1400 1401 1403 1406 1407 1409 1411 1413 1415 1417 1419 1421 1422 1423 1424 1424 1424 1426 1427 1428 1429 1428 1428 1427 1427 1427 1426 1425 1423 1422
1434 1431 1427 1424 1421 1417 1414 1413 1410 1407 1406 1406 1405 1405 1407 1407 1408 1407 1409 1408 1410 1410 1410 1411 1411 1410 1410 1411 1412 1411 1412 1413 1415 1416 1417 1417 1417 1417 1417 1416 1416 1414 1413